Regional Weather Roundup
Issued by NWS

Home | Current Version | Previous Version | Text Only | Print | Product List | Glossary On
Versions: 1 2 3 4 5 6 7 8 9 10 11 12 13 14 15 16 17 18 19 20 21 22 23 24 25 26 27 28 29 30 31 32 33 34 35 36 37 38 39 40 41 42 43 44 45 46 47 48 49 50
000
ASUS43 KLSX 302259
RWRMO

WEATHER SUMMARY FOR MISSOURI
NATIONAL WEATHER SERVICE SPRINGFIELD MO
600 PM CDT SAT AUG 30 2014

NOTE: "FAIR" INDICATES FEW OR NO CLOUDS BELOW 12,000 FEET WITH NO
       SIGNIFICANT WEATHER AND/OR OBSTRUCTIONS TO VISIBILITY.
       CURRENT SKY AND/OR WEATHER CONDITIONS ARE NOT AVAILABLE FOR
       CHILLICOTHE AND FARMINGTON.

MOZ001>031-035>038-043-044-053-054-310000-
...NORTHERN AND WESTERN MISSOURI...

CITY           SKY/WX    TMP DP  RH WIND       PRES   REMARKS
KANSAS CTY INT MOSUNNY   86  65  49 CALM      29.88F
KANSAS C DTWN  SUNNY     88  62  41 W5        29.87S
LEE`S SUMMIT   SUNNY     86  66  51 E7        29.89S
ST JOSEPH      SUNNY     84  67  56 SW3       29.87F
KIRKSVILLE     SUNNY     83  67  58 W8        29.90S

$$
MOZ066>068-077>081-088>096-101>105-310000-
...SOUTHWEST MISSOURI...

CITY           SKY/WX    TMP DP  RH WIND       PRES   REMARKS
SPRINGFIELD    HVY RAIN  70  67  90 SE13      29.94F FOG
JOPLIN         MOSUNNY   92  58  31 VRB3      29.88R HX  91

$$
MOZ032>034-039>042-045>050-055>058-069>072-310000-
...CENTRAL MISSOURI...

CITY           SKY/WX    TMP DP  RH WIND       PRES   REMARKS
COLUMBIA       MOSUNNY   83  72  69 SE7       29.89R
JEFFERSON CITY PTSUNNY   81  68  64 SE8       29.89R
ROLLA          CLOUDY    71  67  87 S9        29.92S
SEDALIA        SUNNY     87  65  47 NW5       29.90R
OSAGE BEACH    CLOUDY    81  70  69 SE6       29.91R

$$
MOZ051-052-059>065-310000-
...EAST CENTRAL MISSOURI...

CITY           SKY/WX    TMP DP  RH WIND       PRES   REMARKS
ST LOUIS INTL  LGT RAIN  81  72  74 S13       29.91R
SPIRIT OF STL  PTSUNNY   82  73  74 S3        29.89R
ST CHARLES     PTSUNNY   82  70  66 S6        29.88R

$$
MOZ072>076-082>087-097>100-106>115-310000-
...SOUTH CENTRAL AND SOUTHEAST MISSOURI...

CITY           SKY/WX    TMP DP  RH WIND       PRES   REMARKS
CAPE GIRARDEAU PTSUNNY   79  70  74 S9        29.97S
FARMINGTON     PTSUNNY   81  70  69 S15       29.95S
POPLAR BLUFF   CLOUDY    80  68  66 S9        29.95R
WEST PLAINS    PTSUNNY   81  69  67 S9        29.98R

$$


USA.gov is the U.S. government's official web portal to all federal, state and local government web resources and services.